[[{"header":{"parameterUnit":"m.s-1","parameterCategory":1,"la1":30.2991,"la2":30.254,"lo1":-89.0895,"lo2":-89.0444,"dy":0.0017,"dx":0.0017,"nx":28,"ny":28,"refTime":"2024-06-25T09:00:00:Z","depth":0,"parameterNumber":2,"parameterNumberName":"U-component_of_WINDS"},"data":[0,0,0,0,0,0,0,0,0,0,0,0,0,0,0,0,0,0,0,0,0,0,0,0,0,0,0,0,0,0,0,0,0,0,0,0,0,0,0,0,0,0,0,0,0,0,0,0,0,0,0,0,0,0,0,0,0,0,3.423,3.4233,0,3.4537,3.4541,3.4544,3.4599,3.4596,3.4593,3.4591,3.4919,3.493,3.4941,0,0,0,0,0,0,0,0,0,0,0,0,0,3.3699,3.3709,3.423,3.4234,3.4237,3.4537,3.4541,3.4545,3.4599,3.4596,3.4593,3.459,3.4916,3.4929,3.4942,0,0,0,0,0,0,0,0,0,0,0,0,0,3.3961,3.3712,3.4229,3.43,3.4309,3.4536,3.4541,3.4546,3.46,3.4596,3.4592,3.4588,3.4911,3.4927,3.4944,3.5125,0,0,3.4995,3.5002,0,0,0,0,0,0,0,0,3.3946,3.398,3.4286,3.4296,3.4306,3.4525,3.4474,3.4741,3.4601,3.449,3.4591,3.4586,3.4792,3.4818,3.4885,3.5141,3.5155,3.4997,3.5007,3.5014,3.5019,0,0,0,0,0,0,0,3.3928,3.3967,3.4352,3.429,3.4303,3.432,3.4352,3.4525,3.466,3.4499,3.4504,3.4539,3.4797,3.4869,3.4893,3.516,3.4996,3.5011,3.5021,3.5028,3.5576,3.5581,0,0,0,0,0,0,3.3895,3.3952,3.4342,3.4361,3.4112,3.4332,3.4369,3.4459,3.4658,3.4684,3.4542,3.454,3.4842,3.4874,3.4905,3.5129,3.5014,3.503,3.5039,3.5572,3.5577,3.5582,0,0,0,0,0,0,3.3883,3.3929,3.433,3.4158,3.421,3.4345,3.4446,3.4467,3.4539,3.469,3.4715,3.459,3.484,3.4882,3.5069,3.5142,3.5037,3.5052,3.5567,3.5574,3.558,3.558,0,0,0,0,0,0,3.3868,3.3925,3.3994,3.4159,3.4219,3.4486,3.4451,3.4476,3.4566,3.4567,3.4741,3.4767,3.484,3.5043,3.5085,3.5163,3.5065,3.5561,3.557,3.5578,3.5574,3.5586,3.5596,0,0,0,0,0,3.3849,3.3985,3.3997,3.4044,3.4307,3.449,3.4525,3.4603,3.4572,3.4643,3.4739,3.4761,3.5125,3.5062,3.511,3.5193,3.5557,3.5567,3.5577,3.5569,3.5583,3.5595,0,0,0,0,0,0,3.3832,3.4008,3.4023,3.4216,3.4336,3.4498,3.4591,3.4616,3.4752,3.4747,3.4842,3.4881,3.5063,3.5147,3.5073,3.5377,3.5339,3.5359,3.5317,3.5332,3.5342,3.532,3.5079,0,0,0,0,0,3.3849,3.3979,3.4128,3.4284,3.4343,3.4455,3.4539,3.4587,3.4718,3.4771,3.4881,3.501,3.5153,3.5247,3.5387,3.5584,3.5624,3.5665,3.5676,3.5684,3.5702,3.5811,3.5831,3.5616,3.5616,3.5615,0,0,3.389,3.4002,3.408,3.4283,3.4382,3.4517,3.4499,3.4644,3.4746,3.4795,3.4977,3.5061,3.5212,3.5403,3.5494,3.5479,3.5768,3.5697,3.5702,3.5716,3.5823,3.5843,3.5861,3.5623,3.5621,3.562,0,0,3.4032,3.4129,3.4268,3.4365,3.4513,3.4586,3.4619,3.4776,3.4832,3.5014,3.5053,3.5176,3.5422,3.5526,3.5612,3.5785,3.5811,3.5828,3.5887,3.5992,3.6009,3.6025,3.6087,3.6108,3.5845,3.5845,3.5845,0,3.4065,3.4266,3.4338,3.4479,3.4568,3.461,3.4753,3.4846,3.5034,3.5095,3.5074,3.5379,3.5484,3.57,3.5741,3.5808,3.5851,3.5811,3.6,3.6016,3.6032,3.6093,3.6116,3.5846,3.5846,3.5846,3.5845,0,3.4299,3.4438,3.4533,3.4706,3.4805,3.4947,3.5042,3.5134,3.5172,3.5247,3.5432,3.5557,3.5722,3.5776,3.5818,3.5998,3.5984,3.598,3.5944,3.6052,3.6111,3.6135,3.5848,3.5847,3.5847,3.5846,0,0,3.4448,3.4651,3.4686,3.4763,3.4925,3.5036,3.5178,3.5334,3.5411,3.5537,3.5661,3.5863,3.5859,3.5955,3.6008,3.61,3.6228,3.6085,3.609,3.6108,3.6434,3.6438,3.6463,3.6244,3.6248,3.6252,3.6422,0,3.461,3.4861,3.4927,3.5142,3.5271,3.5309,3.5433,3.5547,3.562,3.5743,3.5825,3.5967,3.595,3.6008,3.61,3.6193,3.6296,3.6181,3.6363,3.6369,3.6327,3.6494,3.65,3.6654,3.6445,3.6449,3.6452,0,3.4836,3.4959,3.5185,3.5325,3.5382,3.5492,3.5638,3.5753,3.5883,3.5929,3.6032,3.6075,3.6227,3.6178,3.639,3.631,3.6388,3.6444,3.6452,3.6475,3.6419,3.6524,3.6706,3.6729,3.6489,3.6486,3.6483,0,3.4922,3.5145,3.5308,3.5373,3.5541,3.5617,3.5691,3.5816,3.5904,3.6032,3.609,3.6236,3.6317,3.6429,3.6511,3.6468,3.6715,3.6674,3.6761,3.6758,3.6815,3.6811,3.7014,3.686,3.6859,3.6859,3.6858,0,3.5099,3.5236,3.5347,3.5449,3.5603,3.5676,3.5828,3.5904,3.6014,3.6132,3.6175,3.6285,3.6384,3.6508,3.6573,3.6737,3.6774,3.6818,3.6834,3.6816,3.681,3.6871,3.6863,3.6865,3.6864,3.6863,3.6861,0,3.5224,3.5304,3.5484,3.5624,3.5663,3.577,3.5893,3.5993,3.6063,3.6212,3.6251,3.6365,3.6512,3.6602,3.6792,3.6835,3.7017,3.7028,3.6972,3.698,3.7062,3.7054,3.7314,3.7352,3.7169,3.7171,3.7172,0,3.5333,3.5438,3.5587,3.5666,3.5739,3.5867,3.5954,3.6029,3.6119,3.627,3.6353,3.6501,3.6625,3.686,3.6962,3.7106,3.7122,3.7203,3.7145,3.7122,3.7125,3.7119,3.713,3.7214,3.7216,3.7217,3.7218,0,3.5519,3.5551,3.5673,3.5807,3.5907,3.6019,3.613,3.6193,3.6287,3.6386,3.6534,3.6628,3.6817,3.6965,3.7116,3.7197,3.7225,3.7234,3.7262,3.7247,3.721,3.7232,3.7001,3.7229,3.7228,3.7227,3.7227,3.7226,3.5642,3.5735,3.5853,3.5986,3.6074,3.6175,3.6275,3.6354,3.6477,3.6633,3.667,3.6825,3.695,3.7154,3.7237,3.7362,3.735,3.7391,3.7402,3.7411,3.7413,3.7186,3.739,3.739,3.7389,3.7389,3.7389,0,3.5831,3.5906,3.6027,3.6176,3.628,3.6288,3.6409,3.6498,3.6632,3.6742,3.686,3.7029,3.7171,3.728,3.7426,3.7504,3.7521,3.7541,3.7538,3.7556,3.7415,3.7377,3.7525,3.7525,3.7525,3.7525,3.7525,3.7525,3.5942,3.61,3.6145,3.6347,3.6423,3.657,3.6639,3.6732,3.682,3.7005,3.712,3.7187,3.7298,3.7451,3.7582,3.761,3.7663,3.7681,3.7713,3.758,3.7566,3.7552,3.7516,3.7691,3.7692,3.7843,3.7844,3.7845]},{"header":{"parameterUnit":"m.s-1","parameterCategory":1,"la1":30.2991,"la2":30.254,"lo1":-89.0895,"lo2":-89.0444,"dy":0.0017,"dx":0.0017,"nx":28,"ny":28,"refTime":"2024-06-25T09:00:00:Z","depth":0,"parameterNumber":3,"parameterNumberName":"V-component_of_WINDS"},"data":[0,0,0,0,0,0,0,0,0,0,0,0,0,0,0,0,0,0,0,0,0,0,0,0,0,0,0,0,0,0,0,0,0,0,0,0,0,0,0,0,0,0,0,0,0,0,0,0,0,0,0,0,0,0,0,0,0,0,-0.7208,-0.7209,0,-0.7337,-0.7338,-0.734,-0.7439,-0.744,-0.7441,-0.7442,-0.7566,-0.7568,-0.7571,0,0,0,0,0,0,0,0,0,0,0,0,0,-0.704,-0.7042,-0.7207,-0.7209,-0.7211,-0.7337,-0.7339,-0.734,-0.7439,-0.744,-0.7441,-0.7442,-0.7565,-0.7568,-0.7571,0,0,0,0,0,0,0,0,0,0,0,0,0,-0.7135,-0.7043,-0.7207,-0.7275,-0.7283,-0.7336,-0.7339,-0.7341,-0.7439,-0.744,-0.7442,-0.7443,-0.7564,-0.7568,-0.7571,-0.7565,0,0,-0.7582,-0.7584,0,0,0,0,0,0,0,0,-0.7129,-0.7141,-0.7264,-0.7271,-0.7279,-0.7374,-0.7325,-0.7416,-0.7438,-0.7379,-0.7442,-0.7444,-0.75,-0.7509,-0.753,-0.7571,-0.7576,-0.7583,-0.7585,-0.7587,-0.7588,0,0,0,0,0,0,0,-0.7123,-0.7136,-0.7258,-0.7265,-0.7275,-0.7298,-0.7313,-0.7343,-0.743,-0.7385,-0.7392,-0.7407,-0.7505,-0.7526,-0.7534,-0.7578,-0.7583,-0.7586,-0.7588,-0.759,-0.7621,-0.762,0,0,0,0,0,0,-0.7107,-0.713,-0.7254,-0.7262,-0.7207,-0.7299,-0.7316,-0.7342,-0.743,-0.7445,-0.7405,-0.7411,-0.752,-0.7529,-0.7538,-0.7538,-0.7587,-0.759,-0.7592,-0.7623,-0.7621,-0.762,0,0,0,0,0,0,-0.7103,-0.7117,-0.7249,-0.7198,-0.7217,-0.7301,-0.7328,-0.7343,-0.7365,-0.7446,-0.7461,-0.7412,-0.7521,-0.7533,-0.7559,-0.7543,-0.7592,-0.7595,-0.7624,-0.7622,-0.762,-0.7534,0,0,0,0,0,0,-0.7097,-0.7115,-0.7114,-0.7198,-0.7219,-0.7268,-0.7328,-0.7345,-0.7372,-0.7381,-0.7456,-0.7469,-0.7523,-0.7553,-0.7562,-0.7549,-0.7598,-0.7626,-0.7623,-0.7621,-0.7539,-0.753,-0.7522,0,0,0,0,0,-0.7091,-0.7083,-0.7114,-0.7128,-0.7221,-0.7267,-0.728,-0.7344,-0.7371,-0.737,-0.7422,-0.7467,-0.7544,-0.7554,-0.7566,-0.7553,-0.7627,-0.7624,-0.7621,-0.7543,-0.7532,-0.7522,0,0,0,0,0,0,-0.6991,-0.7095,-0.713,-0.7149,-0.7199,-0.7284,-0.7285,-0.733,-0.7371,-0.7376,-0.7452,-0.7469,-0.7485,-0.7522,-0.7532,-0.7553,-0.7591,-0.759,-0.7528,-0.7518,-0.7509,-0.7499,-0.7601,0,0,0,0,0,-0.6972,-0.7004,-0.7092,-0.7099,-0.7123,-0.72,-0.7222,-0.7268,-0.7322,-0.7343,-0.7396,-0.7445,-0.748,-0.7501,-0.7538,-0.7546,-0.7563,-0.7543,-0.7534,-0.7527,-0.7525,-0.7532,-0.7524,-0.761,-0.761,-0.761,0,0,-0.6931,-0.6992,-0.7006,-0.7081,-0.7125,-0.7154,-0.7217,-0.7244,-0.7266,-0.7346,-0.7374,-0.7415,-0.7474,-0.7491,-0.7501,-0.7522,-0.7506,-0.7523,-0.7517,-0.7518,-0.7528,-0.752,-0.7513,-0.7608,-0.7608,-0.7609,0,0,-0.6872,-0.6922,-0.6935,-0.6979,-0.7047,-0.7098,-0.7101,-0.7181,-0.7212,-0.7242,-0.7303,-0.7329,-0.7388,-0.7428,-0.7456,-0.7416,-0.7459,-0.7426,-0.738,-0.7386,-0.738,-0.7374,-0.7359,-0.7353,-0.7424,-0.7423,-0.7423,0,-0.6812,-0.6861,-0.6935,-0.696,-0.6991,-0.7069,-0.7081,-0.712,-0.7194,-0.7213,-0.7237,-0.7314,-0.7359,-0.7387,-0.7378,-0.7398,-0.7403,-0.7416,-0.7375,-0.737,-0.7366,-0.7352,-0.7347,-0.7419,-0.742,-0.742,-0.742,0,-0.6784,-0.6817,-0.6819,-0.6893,-0.6924,-0.6942,-0.7017,-0.704,-0.7084,-0.7132,-0.7162,-0.722,-0.7271,-0.7281,-0.7322,-0.7315,-0.7326,-0.7361,-0.7401,-0.7352,-0.7341,-0.7336,-0.7413,-0.7414,-0.7416,-0.7417,0,0,-0.6662,-0.678,-0.6779,-0.6814,-0.6896,-0.6922,-0.6944,-0.6997,-0.7015,-0.7064,-0.7084,-0.7134,-0.7169,-0.72,-0.7247,-0.7253,-0.7218,-0.7288,-0.7291,-0.7272,-0.7212,-0.7184,-0.7177,-0.7248,-0.7247,-0.7247,-0.7207,0,-0.6614,-0.6661,-0.673,-0.6753,-0.6784,-0.686,-0.688,-0.6931,-0.6978,-0.701,-0.7061,-0.7095,-0.7138,-0.7158,-0.7167,-0.722,-0.7206,-0.7224,-0.7264,-0.7265,-0.7246,-0.7171,-0.714,-0.71,-0.7203,-0.7202,-0.7202,0,-0.6565,-0.6614,-0.6641,-0.6723,-0.6738,-0.6755,-0.681,-0.684,-0.69,-0.6933,-0.6971,-0.7023,-0.705,-0.7088,-0.7124,-0.7135,-0.7156,-0.7184,-0.7184,-0.7189,-0.7229,-0.7171,-0.7089,-0.7082,-0.7196,-0.7196,-0.7197,0,-0.6472,-0.6545,-0.6571,-0.6599,-0.6695,-0.6705,-0.6745,-0.6807,-0.6835,-0.6882,-0.6901,-0.695,-0.6976,-0.7012,-0.7075,-0.7097,-0.7105,-0.7148,-0.7132,-0.713,-0.7127,-0.7126,-0.7045,-0.7144,-0.7144,-0.7144,-0.7144,0,-0.6411,-0.6424,-0.6531,-0.6547,-0.6564,-0.6643,-0.6657,-0.6704,-0.6759,-0.6784,-0.6852,-0.6874,-0.6958,-0.6989,-0.7039,-0.7062,-0.7073,-0.71,-0.7112,-0.7093,-0.7089,-0.7106,-0.7109,-0.7143,-0.7143,-0.7143,-0.7143,0,-0.6309,-0.6381,-0.6415,-0.6505,-0.6528,-0.6536,-0.6612,-0.663,-0.6683,-0.6713,-0.6725,-0.6806,-0.6847,-0.6915,-0.6974,-0.7008,-0.7021,-0.7043,-0.7001,-0.7008,-0.6988,-0.6988,-0.6913,-0.6907,-0.701,-0.7009,-0.7008,0,-0.6264,-0.6276,-0.6369,-0.6393,-0.6431,-0.6467,-0.6498,-0.6576,-0.6604,-0.6675,-0.6684,-0.6731,-0.6772,-0.6833,-0.6895,-0.6942,-0.6965,-0.6936,-0.6972,-0.6952,-0.6963,-0.6961,-0.6962,-0.6926,-0.6924,-0.6923,-0.6922,0,-0.6176,-0.6213,-0.6255,-0.631,-0.6345,-0.6392,-0.6441,-0.6456,-0.6545,-0.6573,-0.6617,-0.665,-0.6713,-0.6757,-0.6813,-0.6853,-0.6901,-0.6911,-0.691,-0.6888,-0.6863,-0.6875,-0.6976,-0.6912,-0.6913,-0.6913,-0.6914,-0.6914,-0.6101,-0.6116,-0.6185,-0.623,-0.6276,-0.6322,-0.6344,-0.6401,-0.644,-0.6499,-0.6543,-0.6583,-0.6645,-0.6725,-0.6762,-0.6794,-0.6816,-0.6814,-0.6813,-0.6811,-0.6803,-0.686,-0.6805,-0.6805,-0.6806,-0.6806,-0.6806,0,-0.6016,-0.6065,-0.6106,-0.6175,-0.6211,-0.6259,-0.6317,-0.6342,-0.6378,-0.6433,-0.6474,-0.6525,-0.657,-0.6638,-0.6687,-0.67,-0.6724,-0.671,-0.6709,-0.6717,-0.6781,-0.6777,-0.669,-0.669,-0.669,-0.669,-0.669,-0.669,-0.5976,-0.6004,-0.6049,-0.6102,-0.615,-0.6193,-0.6222,-0.6264,-0.6309,-0.6364,-0.6403,-0.6448,-0.6508,-0.6564,-0.6607,-0.6626,-0.664,-0.6619,-0.6644,-0.6702,-0.6712,-0.6723,-0.6719,-0.6622,-0.6622,-0.6578,-0.6577,-0.6577]}]]